SAUDISAT 3 (31118 NORAD) Tracking and Keplerian Element Data

This shows tracking and keplerian element data for the satellite.

Feedback or suggestion? Click here.




ElementValue
Catalog31118
NameSAUDISAT 3
Epoch Orbit62039
Epoch Day316.62804542
Epoch Year2018
RAAN289.1866
Inclination97.7841
Eccentricity0.0016222
Argument of Perigee66.8191
Mean Anonmoly293.4731
Mean Motion14.69114415
Decay Rate-2.5E-07
L11 31118U 07012B 18316.62804542 -.00000025 00000-0 36187-5 0 9992
L22 31118 97.7841 289.1866 0016222 66.8191 293.4731 14.69114415620391

Live tracking and technical data element details for SAUDISAT 3 (NORAD 31118). SAUDISAT 3 can be tracked NOW for your location showing map with azimuth and elevation plus other details from your city location.

Track the satellite on the map from your city or location and see movement details for azimuth, elevation, latitude, longitude, range, height, and movement on the map or in text.







IsCatalogInMostPopularTable: catalog: 31118, numindb: 43
Update: records affected: 1



GetName: 31118 SAUDISAT 3

Hit Count: updated at: Tue, 13 Nov 2018 22:33:48 GMT